Regional Weather Roundup
Issued by NWS Bismarck, ND

Home | Current Version | Previous Version | Text Only | Print | Product List | Glossary On
Versions: 1 2 3 4 5 6 7 8 9 10 11 12 13 14 15 16 17 18 19 20 21 22 23 24 25 26 27 28 29 30 31 32 33 34 35 36 37 38 39 40 41 42 43 44 45 46 47 48 49 50
000
ASUS43 KBIS 051002
RWRBIS

NWR BROADCAST TEXT
NATIONAL WEATHER SERVICE BISMARCK ND
500 AM CDT SUN JUL 05 2015

NOTE: "FAIR" INDICATES FEW OR NO CLOUDS BELOW 12,000 FEET WITH NO
SIGNIFICANT WEATHER AND/OR OBSTRUCTIONS TO VISIBILITY.


CITY           SKY/WX    TMP DP  RH WIND       PRES   REMARKS
WILLISTON      RAIN      66  63  90 N22G28    29.87R
MINOT          CLOUDY    62  60  93 N9        29.76R FOG
MINOT AFB      NOT AVBL
BISMARCK       PTCLDY    68  67  96 E7        29.70F
DICKINSON      PTCLDY    62  60  93 NE8       29.72F
GARRISON         N/A     66  62  87 N7        29.72F
HETTINGER ARPT CLEAR     58  56  93 CALM      29.74F
JAMESTOWN      CLEAR     68  65  90 SE7       29.73S
HAZEN          FAIR      64  63  94 E6        29.71F
OAKES            N/A     68  68 100 S9        29.74F
STANLEY        PTSUNNY   63  63 100 N10       29.83R
$$

CITY           SKY/WX    TMP DP  RH WIND       PRES   REMARKS
GRAND FORKS    MOCLDY    68  67  96 SE10      29.73F
GRAND FORKS AF MOCLDY    67  65  94 SE8       29.75F
DEVILS LAKE    PTCLDY    66  61  82 NE8       29.72F
FARGO          MOCLDY    71  65  81 S13       29.75R
CAVALIER       PTSUNNY   66  64  94 S9        29.74F
GRAFTON        FAIR      64  64 100 S7        29.74F
GWINNER          N/A     72  70  94 S8        29.75F
LANGDON        CLOUDY    64  64 100 CALM      29.77S
$$

CITY           SKY/WX    TMP DP  RH WIND       PRES   REMARKS
ABERDEEN       MOCLDY    73  64  73 MISG      29.75F
MOBRIDGE       CLEAR     70  69  97 E9        29.68F
BUFFALO          N/A     69  58  67 S5        29.68F
RAPID CITY     CLEAR     65  61  87 SE5       29.78F
GLASGOW        MOCLDY    59  53  80 N20       29.88F
SIDNEY         CLOUDY    64  61  88 NW16G22   29.89R THUNDER
WOLF POINT     RAIN      64  56  75 E23G29    29.84F
GLENDIVE       MOCLDY    64  61  88 NE25G33   29.77F
MILES CITY     MOCLDY    69  60  73 N25G31    29.79R
BAKER          PTCLDY    62  55  77 SE7       29.73F
$$

CITY           SKY/WX    TMP DP  RH WIND       PRES   REMARKS
BILLINGS       PTCLDY    69  56  62 N29G37    29.85R
GREAT FALLS    CLOUDY    56  51  84 NW16      30.08S
$$



USA.gov is the U.S. government's official web portal to all federal, state and local government web resources and services.